Lakeville, MN

11:47 AM CST on December 14, 2017 (GMT -0600)
Airlake

Weather History for KLVN - January, 2012

Change the Weather History Date:

Sunday, January 1, 2012

  Actual Average Record
Temperature  
Mean Temperature 24 °F -  
Max Temperature 32 °F 21 °F 46 °F (1998)
Min Temperature 17 °F 4 °F -30 °F (1974)
Degree Days  
Heating Degree Days 40    
Moisture  
Dew Point 19 °F    
Average Humidity 78    
Maximum Humidity 93    
Minimum Humidity 64    
Precipitation  
Precipitation 0.00 in - - ()
Sea Level Pressure  
Sea Level Pressure 30.01 in    
Wind  
Wind Speed 22 mph (WNW)    
Max Wind Speed 34 mph    
Max Gust Speed 47 mph    
Visibility 10 miles    
Events Snow    
Averages and records for this station are not official NWS values.
T = Trace of Precipitation, MM = Missing Value Source: NWS Daily Summary

Daily Weather History Graph

Daily Weather History Graph

Search for Another Location

Airport or City:

Trip Planner

Search our weather history database for the weather conditions in past years. The results will help you decide how hot, cold, wet, or windy it might be!

Date:

Astronomy

Jan. 01, 2012 Rise Set
Actual Time 7:49 AM CST 4:42 PM CST
Civil Twilight 7:16 AM CST 5:16 PM CST
Nautical Twilight 6:39 AM CST 5:53 PM CST
Astronomical Twilight 6:04 AM CST 6:28 PM CST
Moon 11:40 AM CST (1/1) 12:35 AM CST (1/1)
Length of Visible Light 9h 59m
Length of Day
8h 53m
First Quarter, 55% of the Moon is Illuminated
Jan 1
First Quarter
Jan 9
Full
Jan 16
Last Quarter
Jan 23
New
Jan 30
First Quarter

Hourly Weather History & Observations

Time (CST) Temp. Windchill Dew Point Humidity Pressure Visibility Wind Dir Wind Speed Gust Speed Precip Events Conditions
12:07 AM 32.0 °F 20.8 °F 30.2 °F 93% 29.74 in 5.0 mi NW 17.3 mph 23.0 mph N/A   Overcast
12:48 AM 32.0 °F 21.6 °F 30.2 °F 93% 29.75 in 7.0 mi NW 15.0 mph - N/A   Overcast
1:08 AM 32.0 °F 20.5 °F 30.2 °F 93% 29.76 in 10.0 mi NW 18.4 mph 24.2 mph N/A   Overcast
1:28 AM 32.0 °F 20.5 °F 30.2 °F 93% 29.77 in 10.0 mi NW 18.4 mph 27.6 mph N/A   Overcast
2:08 AM 30.2 °F 15.9 °F 26.6 °F 86% 29.82 in 10.0 mi NW 26.5 mph 36.8 mph N/A   Overcast
2:28 AM 28.4 °F 14.7 °F 26.6 °F 93% 29.83 in 10.0 mi NW 21.9 mph 27.6 mph N/A   Overcast
2:48 AM 28.4 °F 12.5 °F 23.0 °F 80% 29.85 in 10.0 mi NW 31.1 mph 43.7 mph N/A   Overcast
3:08 AM 28.4 °F 15.8 °F 24.8 °F 86% 29.87 in 10.0 mi NW 18.4 mph 33.4 mph N/A   Mostly Cloudy
3:28 AM 28.4 °F 14.1 °F 24.8 °F 86% 29.87 in 10.0 mi NW 24.2 mph 32.2 mph N/A   Overcast
3:48 AM 28.4 °F 14.7 °F 23.0 °F 80% 29.87 in 10.0 mi NW 21.9 mph 28.8 mph N/A   Overcast
4:08 AM 26.6 °F 13.1 °F 23.0 °F 86% 29.89 in 10.0 mi WNW 19.6 mph 29.9 mph N/A   Mostly Cloudy
4:28 AM 26.6 °F 11.7 °F 23.0 °F 86% 29.90 in 10.0 mi NW 24.2 mph 29.9 mph N/A   Overcast
4:48 AM 26.6 °F 12.7 °F 21.2 °F 80% 29.90 in 10.0 mi NW 20.7 mph 26.5 mph N/A   Overcast
5:08 AM 26.6 °F 11.4 °F 21.2 °F 80% 29.91 in 10.0 mi WNW 25.3 mph 31.1 mph N/A   Overcast
5:28 AM 26.6 °F 13.4 °F 21.2 °F 80% 29.92 in 10.0 mi WNW 18.4 mph 29.9 mph N/A   Mostly Cloudy
5:48 AM 26.6 °F 15.2 °F 21.2 °F 80% 29.93 in 10.0 mi WNW 13.8 mph 24.2 mph N/A   Mostly Cloudy
6:08 AM 24.8 °F 11.9 °F 19.4 °F 80% 29.92 in 10.0 mi WNW 16.1 mph 23.0 mph N/A   Scattered Clouds
6:28 AM 24.8 °F 11.1 °F 19.4 °F 80% 29.92 in 10.0 mi West 18.4 mph 24.2 mph N/A   Scattered Clouds
6:48 AM 24.8 °F 10.7 °F 19.4 °F 80% 29.93 in 10.0 mi West 19.6 mph 28.8 mph N/A   Scattered Clouds
7:08 AM 24.8 °F 9.3 °F 19.4 °F 80% 29.93 in 10.0 mi WNW 24.2 mph 28.8 mph N/A   Clear
7:28 AM 24.8 °F 10.3 °F 19.4 °F 80% 29.94 in 10.0 mi WNW 20.7 mph 27.6 mph N/A   Mostly Cloudy
8:08 AM 24.8 °F 10.0 °F 19.4 °F 80% 29.95 in 10.0 mi WNW 21.9 mph 28.8 mph N/A   Overcast
8:27 AM 24.8 °F 9.6 °F 19.4 °F 80% 29.95 in 10.0 mi West 23.0 mph 33.4 mph N/A   Overcast
8:48 AM 24.8 °F 9.6 °F 19.4 °F 80% 29.96 in 10.0 mi WNW 23.0 mph 31.1 mph N/A   Overcast
9:08 AM 24.8 °F 9.3 °F 19.4 °F 80% 29.96 in 10.0 mi WNW 24.2 mph 33.4 mph N/A   Overcast
9:28 AM 24.8 °F 10.0 °F 17.6 °F 74% 29.97 in 10.0 mi WNW 21.9 mph 33.4 mph N/A   Overcast
9:48 AM 24.8 °F 9.0 °F 17.6 °F 74% 29.98 in 10.0 mi WNW 25.3 mph 32.2 mph N/A   Overcast
10:08 AM 24.8 °F 9.3 °F 17.6 °F 74% 29.98 in 10.0 mi WNW 24.2 mph 33.4 mph N/A   Overcast
10:28 AM 24.8 °F 9.3 °F 19.4 °F 80% 29.99 in 10.0 mi WNW 24.2 mph 33.4 mph N/A   Overcast
10:48 AM 24.8 °F 10.0 °F 19.4 °F 80% 29.99 in 10.0 mi WNW 21.9 mph 31.1 mph N/A   Overcast
11:07 AM 24.8 °F 9.0 °F 19.4 °F 80% 29.99 in 10.0 mi WNW 25.3 mph 33.4 mph N/A   Overcast
11:28 AM 24.8 °F 7.9 °F 19.4 °F 80% 29.99 in 10.0 mi WNW 29.9 mph 42.6 mph N/A   Overcast
12:07 PM 26.6 °F 11.1 °F 19.4 °F 74% 30.00 in 10.0 mi WNW 26.5 mph 35.7 mph N/A   Mostly Cloudy
12:28 PM 26.6 °F 11.1 °F 19.4 °F 74% 30.00 in 10.0 mi WNW 26.5 mph 33.4 mph N/A   Mostly Cloudy
12:48 PM 26.6 °F 12.7 °F 19.4 °F 74% 30.01 in 10.0 mi WNW 20.7 mph 32.2 mph N/A   Overcast
1:07 PM 26.6 °F 11.4 °F 19.4 °F 74% 30.01 in 10.0 mi WNW 25.3 mph 36.8 mph N/A   Overcast
1:28 PM 24.8 °F 8.1 °F 19.4 °F 80% 30.01 in 7.0 mi WNW 28.8 mph 35.7 mph N/A Snow Light Snow
1:47 PM 24.8 °F 10.0 °F 19.4 °F 80% 30.03 in 10.0 mi WNW 21.9 mph 34.5 mph N/A Snow Light Snow
2:08 PM 26.6 °F 11.7 °F 19.4 °F 74% 30.03 in 10.0 mi WNW 24.2 mph 38.0 mph N/A   Overcast
2:28 PM 26.6 °F 10.3 °F 19.4 °F 74% 30.04 in 10.0 mi WNW 29.9 mph 35.7 mph N/A   Overcast
2:48 PM 26.6 °F 10.0 °F 15.8 °F 64% 30.05 in 10.0 mi WNW 31.1 mph 43.7 mph N/A   Mostly Cloudy
3:08 PM 24.8 °F 8.1 °F 15.8 °F 69% 30.08 in 10.0 mi WNW 28.8 mph 40.3 mph N/A   Scattered Clouds
3:28 PM 24.8 °F 6.8 °F 15.8 °F 69% 30.09 in 10.0 mi NW 34.5 mph 42.6 mph N/A   Mostly Cloudy
3:48 PM 24.8 °F 7.9 °F 15.8 °F 69% 30.11 in 10.0 mi WNW 29.9 mph 36.8 mph N/A   Overcast
4:07 PM 23.0 °F 4.6 °F 15.8 °F 74% 30.13 in 10.0 mi WNW 33.4 mph 47.2 mph N/A   Mostly Cloudy
4:28 PM 23.0 °F 4.6 °F 14.0 °F 68% 30.15 in 10.0 mi NW 33.4 mph 43.7 mph N/A   Mostly Cloudy
4:48 PM 21.2 °F 4.2 °F 14.0 °F 74% 30.17 in 10.0 mi NW 25.3 mph 40.3 mph N/A   Overcast
5:08 PM 21.2 °F 3.0 °F 14.0 °F 74% 30.17 in 10.0 mi NW 29.9 mph 38.0 mph N/A   Overcast
5:28 PM 21.2 °F 4.5 °F 15.8 °F 80% 30.19 in 10.0 mi NW 24.2 mph 40.3 mph N/A Snow Light Snow
5:48 PM 21.2 °F 4.5 °F 15.8 °F 80% 30.19 in 7.0 mi WNW 24.2 mph 36.8 mph N/A Snow Light Snow
6:08 PM 19.4 °F 1.1 °F 12.2 °F 74% 30.21 in 10.0 mi NW 27.6 mph 41.4 mph N/A   Mostly Cloudy
6:28 PM 19.4 °F 0.8 °F 10.4 °F 68% 30.22 in 10.0 mi WNW 28.8 mph 40.3 mph N/A   Clear
6:48 PM 19.4 °F 2.1 °F 10.4 °F 68% 30.24 in 10.0 mi WNW 24.2 mph 33.4 mph N/A   Scattered Clouds
7:08 PM 17.6 °F -2.2 °F 10.4 °F 73% 30.24 in 10.0 mi NW 31.1 mph 39.1 mph N/A   Mostly Cloudy
7:28 PM 17.6 °F -1.9 °F 10.4 °F 73% 30.24 in 10.0 mi WNW 29.9 mph 40.3 mph N/A   Mostly Cloudy
7:48 PM 17.6 °F -1.9 °F 10.4 °F 73% 30.25 in 10.0 mi WNW 29.9 mph 42.6 mph N/A   Overcast
8:08 PM 17.6 °F 0.1 °F 10.4 °F 73% 30.27 in 10.0 mi NW 23.0 mph 34.5 mph N/A   Mostly Cloudy
8:27 PM 17.6 °F -1.0 °F 10.4 °F 73% 30.27 in 10.0 mi NW 26.5 mph 34.5 mph N/A   Overcast
8:48 PM 17.6 °F 0.1 °F 10.4 °F 73% 30.27 in 10.0 mi NW 23.0 mph 32.2 mph N/A   Overcast
9:08 PM 17.6 °F 0.1 °F 10.4 °F 73% 30.27 in 10.0 mi NW 23.0 mph 31.1 mph N/A   Overcast
9:28 PM 17.6 °F 3.2 °F 12.2 °F 79% 30.28 in 10.0 mi NW 15.0 mph 27.6 mph N/A Snow Light Snow
9:48 PM 17.6 °F 1.3 °F 12.2 °F 79% 30.28 in 7.0 mi WNW 19.6 mph 26.5 mph N/A Snow Light Snow
10:08 PM 17.6 °F 1.7 °F 14.0 °F 86% 30.28 in 7.0 mi WNW 18.4 mph - N/A Snow Light Snow
10:28 PM 17.6 °F 2.2 °F 12.2 °F 79% 30.28 in 10.0 mi WNW 17.3 mph 23.0 mph N/A Snow Light Snow
11:08 PM 17.6 °F 1.3 °F 12.2 °F 79% 30.28 in 10.0 mi NW 19.6 mph 26.5 mph N/A   Overcast
11:28 PM 17.6 °F 1.7 °F 12.2 °F 79% 30.28 in 10.0 mi WNW 18.4 mph 25.3 mph N/A Snow Light Snow
11:48 PM 17.6 °F 1.7 °F 12.2 °F 79% 30.28 in 10.0 mi WNW 18.4 mph 27.6 mph N/A Snow Light Snow